Temp
23 24 23 22 21 21 21 21 22 22 23 22 22 21 21 21 20 20 19 19 19 19 18 18 19 19 18 18 18 18 18 18 18 17 17 17 17 17 16 17 17 17 17
24 23 23 22 22 21 21 21 21 21 22 22 21 21 20 20 20 19 19 19 19 19 18 18 18 18 18 17 18 18 17 17 17 17 17 17 17 17 16 17 17 17 17
24 23 22 22 22 21 20 20 20 21 21 22 22 21 20 20 20 19 19 19 18 18 18 18 18 18 17 17 17 17 17 17 17 17 17 17 16 16 16 16 16 16 16
24 23 22 21 21 21 20 20 20 20 21 21 21 21 20 20 19 19 19 18 18 18 18 18 17 17 17 17 17 17 17 17 17 17 16 16 16 16 16 17 16 16 16
23 23 22 22 21 21 21 20 20 20 20 20 20 20 19 19 19 19 18 18 18 18 18 17 17 16 17 17 17 17 17 17 16 16 16 16 15 16 16 16 16 15 15
22 22 22 21 20 19 20 20 20 20 19 19 19 19 19 19 19 19 18 18 18 18 18 18 17 17 17 17 17 16 17 17 16 16 16 16 17 15 15 15 14 14 14
22 21 21 20 20 18 18 19 19 18 18 18 18 18 18 18 18 18 18 17 17 18 18 17 17 16 16 17 17 17 17 16 17 17 16 16 16 15 14 14 14 14 14
22 21 21 20 20 19 18 19 19 18 18 17 16 16 17 17 18 17 17 17 17 17 17 16 16 16 16 16 17 17 17 17 17 16 16 15 15 14 14 13 13 13 13
21 21 20 20 18 19 19 19 19 18 17 16 17 17 16 16 17 17 17 17 17 17 16 16 16 16 16 16 16 16 16 16 16 15 15 14 14 14 13 13 13 13 13
21 21 20 19 20 18 18 18 18 17 17 17 17 17 16 16 15 17 17 17 17 17 16 16 16 16 16 16 16 16 16 15 15 14 14 14 14 14 13 13 13 13 12
19 20 19 19 20 20 19 18 18 16 16 18 17 17 18 16 16 16 16 17 17 17 16 16 16 16 16 16 16 16 15 15 14 13 13 13 14 14 13 13 12 12 12
18 19 19 19 19 19 19 18 17 16 15 15 16 17 17 16 16 16 16 17 17 17 16 16 16 16 16 16 15 15 15 14 13 13 13 13 14 14 13 13 12 12 12
19 19 19 19 18 18 18 18 16 16 15 15 15 15 15 16 15 15 16 17 16 16 16 16 16 16 16 15 15 15 14 13 13 13 13 13 13 13 13 12 12 12 12
19 19 19 18 18 17 17 16 16 16 15 15 16 15 15 15 15 15 15 16 16 15 15 16 16 16 15 15 16 15 14 14 13 13 13 13 13 13 13 12 12 12 12
18 19 18 17 17 16 16 16 15 15 15 14 15 15 15 15 15 15 15 15 15 15 15 16 16 15 16 15 15 16 15 14 13 13 13 13 13 13 13 13 12 12 11
19 18 17 17 17 16 15 15 15 15 14 14 14 15 14 15 15 15 14 15 15 15 16 16 16 16 16 16 15 15 15 14 13 13 13 13 13 13 12 12 12 12 11
18 18 17 17 16 15 15 15 14 15 15 15 14 15 14 14 14 14 14 15 15 16 16 16 16 16 16 15 15 15 15 14 13 13 13 13 12 12 12 12 12 12 11
17 17 16 16 16 15 15 15 14 15 14 15 14 14 14 14 14 14 13 14 15 16 16 16 15 15 15 15 15 15 15 14 14 13 13 12 12 12 12 12 12 11 11
17 16 15 15 16 15 15 15 15 14 14 14 14 14 13 14 14 14 14 14 15 15 15 16 16 16 15 15 15 14 14 14 14 13 13 13 12 12 12 12 12 12 11
16 15 15 15 13 14 15 14 15 14 14 14 14 14 13 14 13 14 14 14 15 15 15 16 16 15 16 16 15 14 14 14 14 13 13 13 13 12 12 12 12 12 12
15 14 13 13 12 13 13 13 14 14 14 14 14 14 14 14 13 14 14 15 15 15 15 16 16 16 15 15 14 12 12 13 13 13 14 13 13 13 13 13 13 12 12
13 14 13 13 12 13 13 13 13 14 14 14 14 14 14 13 13 14 14 14 15 14 15 16 16 16 15 15 14 13 11 12 12 13 13 14 14 14 13 13 13 13 13
13 12 12 13 12 13 13 13 13 13 13 13 14 13 14 14 14 13 14 14 14 14 14 15 16 16 16 15 16 15 11 12 12 13 13 13 14 14 14 14 14 14 14
13 12 12 13 13 13 13 13 13 13 13 13 13 13 13 13 13 13 14 14 15 15 15 16 16 16 16 15 15 16 17 15 12 12 13 13 14 14 14 14 14 15 14
13 13 13 13 12 12 13 14 13 13 13 13 13 12 13 13 13 13 14 14 15 15 15 16 16 16 16 16 16 15 16 15 15 13 12 12 13 14 15 15 15 15 15
13 13 12 13 12 12 13 12 13 12 12 12 13 12 12 13 13 13 13 14 15 16 16 16 16 16 16 17 16 16 16 15 14 14 12 12 13 15 15 16 15 16 16
Height
745 746 748 748 751 755 758 760 759 760 763 766 768 770 772 773 774 780 783 787 789 790 794 798 800 802 805 807 809 811 813 815 817 819 821 823 825 826 828 829 830 833 833
743 745 746 748 750 754 758 760 760 760 763 766 769 771 774 776 776 780 784 788 790 791 796 799 801 805 806 808 811 813 815 817 820 822 825 827 828 830 832 833 834 836 836
741 743 745 747 750 754 758 760 762 762 763 765 768 771 773 773 777 782 785 787 791 793 797 799 802 806 807 809 812 815 817 819 822 825 827 829 831 833 835 836 838 839 840
740 742 743 745 749 753 757 759 762 765 765 765 768 771 775 773 779 782 786 788 791 794 797 801 804 806 808 811 813 816 818 820 824 826 830 832 834 836 838 839 840 843 844
738 741 742 744 747 751 755 759 761 764 767 768 768 770 776 777 779 782 786 789 792 795 797 801 805 807 810 811 814 817 820 822 825 828 831 833 835 838 841 842 844 846 847
736 740 742 744 747 751 755 759 762 765 768 769 772 772 775 780 779 781 787 791 793 796 799 803 805 807 810 813 815 819 821 825 827 829 832 835 837 840 843 845 846 849 850
734 738 741 744 747 751 754 758 761 765 769 772 773 775 776 786 787 784 789 791 794 797 799 802 806 808 812 815 816 821 823 826 827 830 834 836 840 843 845 847 849 851 852
734 737 741 743 747 750 753 756 762 764 768 772 773 783 780 789 792 796 796 794 796 799 800 804 806 810 813 817 819 822 825 828 830 833 837 839 843 845 847 848 851 853 854
734 736 740 743 747 750 753 757 760 761 764 768 774 778 788 787 788 799 798 798 798 800 804 806 809 811 816 818 821 824 826 829 832 835 839 842 845 847 850 851 853 855 856
734 734 738 742 746 750 753 755 758 759 759 764 767 770 783 783 796 793 800 800 800 800 806 808 810 813 817 821 823 826 828 831 833 836 840 844 846 849 852 854 855 857 858
733 734 737 741 745 748 751 753 756 758 761 759 763 769 772 780 794 794 798 800 800 802 808 809 812 815 818 822 825 827 829 833 835 838 841 845 847 850 854 855 857 859 862
730 731 735 739 742 745 748 749 751 756 758 760 761 765 766 775 784 791 796 797 800 804 809 811 814 817 821 824 827 829 831 834 837 839 842 846 848 851 855 857 857 861 863
726 729 731 735 739 741 744 745 749 752 754 757 758 761 768 773 776 786 793 796 800 804 809 812 814 816 820 823 826 829 833 837 838 842 845 847 849 853 855 856 859 862 864
723 725 728 732 735 737 740 742 745 747 750 754 757 761 765 771 778 783 788 792 797 803 807 812 813 816 820 824 826 830 834 838 839 844 847 848 850 853 857 857 859 863 866
720 721 724 729 731 733 736 739 742 745 747 752 757 760 764 770 775 780 786 790 795 802 808 813 815 818 821 826 830 832 834 838 840 845 847 849 851 854 858 858 860 863 867
716 716 721 724 727 729 732 735 739 743 746 750 754 760 763 769 773 778 784 788 794 800 806 811 816 819 823 826 830 833 836 839 842 845 848 851 852 855 858 859 862 864 867
710 713 718 720 723 726 729 732 736 740 743 748 752 756 760 765 770 773 781 786 792 797 803 811 817 822 823 826 830 834 834 839 843 846 849 851 854 856 858 861 862 865 867
706 711 716 718 720 723 726 729 733 737 740 743 749 752 756 758 765 771 777 784 789 795 802 808 814 819 823 826 829 833 836 840 842 846 849 853 854 856 858 861 862 865 867
704 710 714 715 717 720 724 728 730 732 736 739 744 745 748 753 759 767 774 782 787 794 800 806 814 817 822 824 830 836 838 839 843 846 848 853 855 855 858 861 863 865 868
703 708 711 713 715 719 723 726 729 730 733 735 739 743 746 751 758 767 773 780 786 792 799 804 811 818 819 823 829 836 840 842 842 845 847 852 855 856 857 859 861 863 866
703 707 709 711 714 717 721 724 726 728 730 730 733 740 746 751 760 765 773 780 785 789 796 802 809 814 820 823 830 839 842 844 844 844 847 850 853 855 856 857 859 861 863
699 704 707 709 713 716 718 721 723 726 728 729 732 739 746 753 761 766 773 778 783 789 794 799 804 810 817 820 825 836 843 847 844 843 846 848 850 852 854 856 857 858 860
697 702 705 707 712 714 716 720 723 725 729 728 732 740 746 753 760 767 774 778 783 788 791 796 802 806 812 819 822 828 837 839 839 841 842 844 846 848 850 852 853 854 856
693 699 703 707 711 714 715 719 721 724 728 731 732 739 745 754 762 767 775 778 782 787 790 795 800 805 808 815 822 823 824 828 833 840 839 839 841 843 845 847 848 849 850
690 696 700 706 710 714 715 718 721 725 729 731 734 739 747 755 761 766 774 779 782 786 789 795 798 803 808 811 815 820 822 824 824 828 834 834 837 837 839 841 842 843 844
688 694 698 704 709 713 715 718 722 725 729 733 736 741 744 753 759 766 772 777 782 785 789 793 798 801 806 809 812 815 818 820 823 823 827 830 831 831 833 835 835 836 837
Wind_Speed
11 17 17 17 21 21 20 23 26 26 26 32 35 35 36 38 38 35 34 32 30 30 27 26 25 27 26 27 28 30 30 30 30 29 28 27 28 28 29 32 32 30 31
13 18 17 19 22 24 22 23 26 29 29 30 35 36 38 37 37 36 35 31 29 28 27 27 27 27 29 30 31 31 32 31 30 29 28 27 27 27 28 30 31 30 30
16 17 18 19 23 25 25 24 24 28 31 31 32 37 37 39 37 36 34 31 29 29 28 28 28 28 30 32 33 33 33 31 30 29 28 27 26 26 27 28 27 28 27
18 18 19 20 24 27 26 26 24 24 28 32 33 37 38 38 37 35 33 31 30 30 29 27 28 29 32 33 35 35 34 33 31 30 29 28 26 26 25 24 24 23 21
20 19 19 20 25 27 27 26 25 23 24 30 34 36 35 36 36 34 32 31 30 30 29 28 29 31 34 35 36 35 33 33 33 32 29 28 26 23 22 22 22 22 22
22 20 20 20 25 25 26 26 25 23 24 27 30 32 32 33 34 33 33 31 32 32 28 29 32 34 36 37 36 35 34 32 32 31 29 25 23 21 21 22 22 22 21
22 20 19 19 23 25 24 26 26 23 23 24 24 23 28 23 26 31 31 32 32 30 31 33 36 36 37 36 36 33 32 31 30 27 25 24 21 20 21 21 21 22 22
19 20 20 21 21 24 25 26 24 26 26 24 23 21 20 22 20 21 28 31 32 33 33 36 37 36 36 34 32 31 30 28 28 26 24 22 20 20 20 21 22 21 21
19 19 21 23 23 22 25 25 27 31 31 30 25 19 15 17 16 19 24 29 32 33 34 35 37 37 32 31 30 29 28 27 29 26 23 22 20 20 20 21 21 21 22
18 19 22 23 18 22 25 29 30 34 37 38 29 27 19 13 22 20 22 27 30 33 33 37 36 33 29 29 29 28 25 26 29 27 24 22 22 20 20 20 21 20 21
17 19 21 21 19 19 23 27 29 32 34 40 34 36 25 16 23 26 27 28 29 35 36 37 32 27 28 30 30 27 26 27 27 27 26 23 22 21 20 20 20 20 19
22 21 21 21 22 22 22 25 29 34 36 35 32 33 29 28 24 30 29 30 31 36 36 34 30 27 32 32 29 27 26 29 28 26 27 25 23 21 20 20 21 19 19
26 22 21 21 21 22 23 23 26 34 34 30 31 30 27 32 42 40 32 32 32 38 38 33 29 32 35 34 31 27 28 28 27 27 26 24 23 21 21 20 19 19 19
24 23 20 19 19 21 23 25 27 33 33 30 27 30 31 36 36 38 33 36 33 39 38 35 30 33 37 34 29 26 28 28 28 27 26 24 23 21 20 20 20 18 18
25 24 22 21 20 22 24 26 28 31 31 31 33 29 34 37 36 32 31 37 36 40 38 33 30 33 35 32 28 27 27 28 28 28 26 24 23 21 19 19 19 18 17
28 25 23 20 18 19 24 26 30 33 29 28 33 38 35 39 38 36 33 38 39 43 40 36 35 30 30 30 30 28 26 26 28 28 26 24 23 22 20 19 18 18 17
31 26 22 19 17 18 23 25 29 33 32 30 32 43 39 39 41 42 37 40 41 44 41 39 32 28 25 28 30 27 24 25 27 27 25 24 22 21 20 19 18 18 17
31 26 22 20 19 19 22 26 29 32 33 33 31 35 41 36 46 43 40 41 43 45 42 40 34 29 26 30 31 26 25 26 27 26 24 23 23 21 20 19 18 18 18
30 26 23 19 18 20 20 22 26 30 33 33 29 28 40 39 46 41 41 40 43 43 42 41 35 30 28 30 30 26 26 26 27 25 23 23 22 21 20 19 18 18 18
28 25 20 17 16 18 19 18 22 26 35 36 31 34 38 41 43 40 39 42 44 42 41 41 37 26 29 28 26 26 24 23 25 25 23 22 22 22 21 20 19 18 18
26 24 21 18 17 19 19 19 18 19 26 31 36 39 41 37 39 37 38 42 43 43 42 41 38 29 27 27 23 19 18 19 22 21 22 22 23 23 21 21 21 21 21
28 26 22 19 19 19 17 17 11 19 19 26 29 38 38 38 35 34 34 40 41 38 41 42 38 27 24 28 16 14 3 4 16 21 23 24 23 23 23 23 24 24 25
22 22 22 22 21 19 21 16 18 19 18 16 31 31 36 39 34 32 31 33 35 33 33 40 37 33 22 30 25 10 3 4 6 14 25 27 26 26 26 27 27 27 28
23 21 20 24 21 20 21 21 20 14 13 12 21 29 32 36 35 34 32 32 36 35 37 39 35 35 33 28 23 20 14 9 3 2 13 31 29 30 31 30 30 30 31
23 22 21 27 24 20 21 21 20 16 14 19 22 26 29 32 34 33 33 33 34 35 38 39 35 37 37 34 30 23 16 13 10 4 3 6 24 34 32 33 33 33 33
21 22 26 27 22 23 23 20 20 19 18 20 22 23 28 31 31 29 27 28 33 34 39 37 35 35 35 35 38 30 24 11 9 5 2 3 11 20 33 34 34 35 37
Wind_Direction
194 185 194 184 176 176 178 161 150 144 146 156 158 158 157 154 151 151 149 148 146 142 133 131 136 138 129 125 128 128 126 124 120 118 114 113 111 110 110 110 107 105 103
182 178 181 185 179 176 176 168 156 149 150 157 161 161 158 155 152 154 153 151 147 136 135 134 132 132 128 130 132 130 128 124 122 118 116 114 112 108 110 114 111 110 108
182 176 180 180 181 179 178 173 164 156 153 156 162 166 160 157 158 159 158 155 147 139 139 138 137 138 132 138 137 133 130 127 125 121 119 118 116 112 113 114 111 106 105
181 179 179 180 183 183 183 178 171 166 161 160 162 164 165 161 163 162 161 155 150 146 142 140 140 139 140 143 139 137 135 131 127 128 126 124 119 118 115 119 113 110 111
184 181 180 182 186 187 186 183 177 173 169 167 166 165 166 164 165 164 163 157 156 151 147 144 146 142 146 144 142 140 138 135 134 130 126 124 119 120 123 124 122 120 119
186 186 184 187 189 187 186 185 181 179 175 171 170 167 170 170 167 165 163 161 155 151 148 152 148 149 148 146 144 141 140 138 134 131 129 126 129 128 132 127 121 118 119
184 189 188 191 192 187 183 187 185 175 170 168 160 169 159 165 165 163 165 161 157 154 155 155 151 150 150 150 147 146 145 143 139 137 135 132 136 138 129 126 121 123 119
186 188 191 192 195 193 190 191 184 176 171 162 153 168 153 171 168 170 165 160 158 156 159 154 151 152 152 151 151 150 147 146 143 146 147 143 141 136 132 129 128 126 123
193 190 194 193 196 196 199 194 189 188 169 152 140 130 152 164 158 188 171 165 158 159 158 156 155 150 148 151 150 152 154 156 150 148 147 145 144 136 135 133 130 128 124
184 190 194 194 198 198 201 200 200 198 183 167 157 140 140 137 197 183 192 177 166 163 163 159 159 157 156 156 157 158 158 159 155 148 144 146 142 140 138 136 132 129 127
181 184 187 190 196 209 209 209 212 201 184 186 190 195 210 215 201 193 202 183 171 168 165 161 160 161 163 161 160 158 160 159 155 148 148 148 144 142 142 138 133 131 131
186 185 189 192 198 203 213 217 211 196 189 189 199 209 206 201 202 198 203 186 177 173 166 164 158 158 158 160 158 160 161 158 154 151 148 150 145 144 145 141 136 136 135
192 190 192 197 204 205 205 212 208 208 205 208 207 201 202 199 186 191 199 186 179 173 168 165 163 164 164 163 161 161 160 160 155 153 151 151 147 149 149 144 141 142 141
197 195 195 198 201 204 207 206 207 205 208 202 200 195 192 179 176 188 188 184 180 176 171 168 166 169 167 169 165 161 162 164 157 158 157 155 152 152 155 149 145 147 147
202 197 195 196 202 207 208 208 207 207 205 206 196 188 183 181 189 185 179 182 182 179 175 167 165 163 166 168 168 166 164 167 162 163 162 161 160 158 160 154 154 154 155
197 190 191 194 202 208 202 208 203 200 196 188 195 185 178 184 187 186 180 185 186 183 176 170 167 163 171 176 173 172 170 169 171 168 166 168 167 164 165 162 160 160 162
192 188 190 187 192 196 201 208 203 200 199 203 196 195 188 184 181 180 182 188 188 185 180 175 171 165 164 176 175 177 172 175 175 174 174 173 174 172 171 170 167 170 171
188 186 186 187 189 187 202 209 206 207 205 204 199 200 203 191 183 180 182 187 188 184 184 178 172 165 170 178 175 179 179 180 178 180 179 182 181 179 181 183 179 180 181
185 183 183 183 188 190 196 204 200 208 203 196 198 204 189 181 177 179 183 185 185 183 184 180 177 169 169 169 176 184 183 182 183 183 184 190 190 188 191 192 193 194 194
181 183 183 180 185 186 196 201 208 196 197 198 193 181 177 175 178 181 182 186 182 179 180 182 179 172 167 171 176 184 187 187 186 189 190 195 199 200 200 202 204 209 212
179 178 178 169 175 176 185 189 196 185 188 191 181 182 183 184 182 182 182 184 182 181 182 182 180 173 168 168 159 170 185 195 195 195 198 202 209 211 210 211 215 219 222
176 183 176 169 169 177 175 187 177 196 178 177 175 173 180 183 180 181 181 183 182 180 182 183 181 179 171 172 157 146 136 220 215 208 209 212 217 218 222 224 225 229 233
176 176 174 175 171 176 181 176 189 175 181 159 167 166 177 187 186 182 186 182 183 184 182 182 186 186 179 181 180 165 134 203 158 217 220 223 224 226 230 232 233 236 239
177 175 171 176 174 179 181 185 172 169 157 168 165 163 169 183 186 187 192 191 188 188 189 189 190 195 192 187 190 199 188 159 163 178 223 230 229 233 235 237 238 241 243
172 174 170 179 177 180 180 186 179 174 166 166 172 166 168 175 182 186 193 199 195 195 196 195 196 200 201 199 198 195 195 186 178 154 175 214 231 234 238 242 244 247 249
171 170 173 178 177 184 187 181 185 172 167 165 168 164 170 184 187 193 195 200 207 206 207 205 208 206 206 211 206 203 196 179 188 164 169 168 217 233 240 246 248 250 252